Dayton, OH

3:29 PM EST on December 10, 2016 (GMT -0500)
Wright-Patterson Air Force Base

Weather History for KFFO - August, 2013

Change the Weather History Date:

Sunday, August 11, 2013

  Actual Average Record
Temperature  
Mean Temperature 74 °F -  
Max Temperature 84 °F 81 °F 91 °F (2002)
Min Temperature 66 °F 60 °F 54 °F (2011)
Cooling Degree Days 10    
Growing Degree Days 24 (Base 50)    
Moisture  
Dew Point 67 °F    
Average Humidity 83    
Maximum Humidity 100    
Minimum Humidity 56    
Precipitation  
Precipitation 0.00 in - - ()
Sea Level Pressure  
Sea Level Pressure 30.09 in    
Wind  
Wind Speed 2 mph (North)    
Max Wind Speed 12 mph    
Max Gust Speed -    
Visibility 7 miles    
Events Fog , Rain    
Averages and records for this station are not official NWS values.
T = Trace of Precipitation, MM = Missing Value Source: NWS Daily Summary

Daily Weather History Graph

Daily Weather History Graph

Search for Another Location

Airport or City:

Trip Planner

Search our weather history database for the weather conditions in past years. The results will help you decide how hot, cold, wet, or windy it might be!

Date:

Astronomy

Aug. 11, 2013 Rise Set
Actual Time 6:44 AM EDT 8:37 PM EDT
Civil Twilight 6:15 AM EDT 9:06 PM EDT
Nautical Twilight 5:39 AM EDT 9:42 PM EDT
Astronomical Twilight 5:01 AM EDT 10:20 PM EDT
Moon 11:30 AM EDT (8/11) 10:53 PM EDT (8/11)
Length of Visible Light 14h 51m
Length of Day
13h 52m
Waxing Crescent, 22% of the Moon is Illuminated
Aug 11
Waxing Crescent
Aug 14
First Quarter
Aug 20
Full
Aug 28
Last Quarter
Sep 5
New

Hourly Weather History & Observations

Time (EDT) Temp. Heat Index Dew Point Humidity Pressure Visibility Wind Dir Wind Speed Gust Speed Precip Events Conditions
12:58 AM 71.6 °F - 68.4 °F 89% 30.09 in 10.0 mi Variable 2.3 mph - N/A   Scattered Clouds
1:58 AM 71.1 °F - 68.4 °F 91% 30.09 in 10.0 mi Calm Calm - N/A   Partly Cloudy
2:58 AM 69.6 °F - 67.6 °F 93% 30.09 in 10.0 mi Calm Calm - N/A   Mostly Cloudy
3:58 AM 69.3 °F - 67.5 °F 94% 30.08 in 10.0 mi NNW 2.3 mph - N/A   Clear
4:58 AM 67.8 °F - 66.7 °F 96% 30.09 in 10.0 mi Calm Calm - N/A   Clear
5:08 AM 68.0 °F - 66.2 °F 94% 30.09 in 9.0 mi NNE 1.2 mph - N/A   Clear
5:18 AM 68.0 °F - 66.2 °F 94% 30.09 in 10.0 mi NNE 2.3 mph - N/A   Clear
5:28 AM 66.2 °F - 64.4 °F 94% 30.09 in 9.0 mi NNE 1.2 mph - N/A   Clear
5:48 AM 66.2 °F - 64.4 °F 94% 30.09 in 10.0 mi North 2.3 mph - N/A   Clear
5:58 AM 66.7 °F - 64.9 °F 94% 30.09 in 10.0 mi NNW 2.3 mph - N/A   Clear
6:38 AM 66.2 °F - 64.4 °F 94% 30.10 in 3.0 mi NNE 3.5 mph - N/A   Clear
6:48 AM 66.2 °F - 66.2 °F 100% 30.10 in 4.0 mi ENE 2.3 mph - N/A   Partly Cloudy
6:58 AM 66.2 °F - 66.2 °F 100% 30.09 in 4.0 mi NNE 2.3 mph - N/A   Partly Cloudy
7:13 AM 66.2 °F - 66.2 °F 100% 30.10 in 1.0 mi NE 2.3 mph - N/A   Partly Cloudy
7:28 AM 66.2 °F - 66.2 °F 100% 30.10 in 0.5 mi North 2.3 mph - N/A Fog Fog
7:58 AM 66.7 °F - 66.7 °F 100% 30.11 in 0.2 mi NNE 3.5 mph - N/A Fog Fog
8:58 AM 68.4 °F - 68.0 °F 99% 30.11 in 0.5 mi ESE 1.2 mph - N/A   Partly Cloudy
9:04 AM 69.8 °F - 68.0 °F 94% 30.11 in 4.0 mi Calm Calm - N/A   Light Drizzle
9:31 AM 71.6 °F - 69.8 °F 94% 30.11 in 4.0 mi Calm Calm - N/A   Partly Cloudy
9:58 AM 72.0 °F - 69.3 °F 91% 30.11 in 10.0 mi Variable 1.2 mph - 0.00 in Rain Light Rain
10:58 AM 76.1 °F - 68.5 °F 77% 30.11 in 10.0 mi NNE 2.3 mph - N/A   Partly Cloudy
11:26 AM 77.0 °F - 68.0 °F 74% 30.12 in 10.0 mi SSE 1.2 mph - N/A   Partly Cloudy
11:31 AM 78.8 °F - 68.0 °F 69% 30.11 in 10.0 mi Calm Calm - N/A   Partly Cloudy
11:58 AM 79.0 °F - 69.6 °F 73% 30.09 in 10.0 mi East 2.3 mph - N/A   Scattered Clouds
12:58 PM 81.1 °F 85.0 °F 70.9 °F 71% 30.09 in 9.0 mi NNW 8.1 mph - N/A   Partly Cloudy
1:58 PM 81.9 °F 85.8 °F 70.3 °F 68% 30.07 in 10.0 mi West 4.6 mph - N/A   Clear
2:58 PM 83.3 °F 86.9 °F 68.9 °F 62% 30.06 in 7.0 mi WNW 11.5 mph - N/A   Partly Cloudy
3:48 PM 82.4 °F 85.4 °F 68.0 °F 62% 30.07 in 4.0 mi NNW 11.5 mph - N/A   Haze
3:58 PM 83.7 °F 87.0 °F 68.5 °F 60% 30.06 in 5.0 mi WNW 8.1 mph - N/A   Haze
4:38 PM 82.4 °F 85.4 °F 68.0 °F 62% 30.06 in 2.0 mi NW 8.1 mph - N/A   Haze
4:58 PM 82.4 °F 85.4 °F 68.0 °F 62% 30.06 in 7.0 mi NW 6.9 mph - N/A   Scattered Clouds
5:58 PM 81.7 °F 83.3 °F 64.8 °F 56% 30.05 in 10.0 mi WNW 5.8 mph - N/A   Partly Cloudy
6:58 PM 81.7 °F 84.2 °F 66.9 °F 61% 30.04 in 10.0 mi NNW 9.2 mph - N/A   Partly Cloudy
7:58 PM 78.8 °F - 65.3 °F 63% 30.06 in 10.0 mi NNW 5.8 mph - N/A   Clear
8:58 PM 75.0 °F - 65.3 °F 72% 30.07 in 10.0 mi NNE 3.5 mph - N/A   Clear
9:58 PM 73.2 °F - 66.4 °F 79% 30.09 in 10.0 mi North 3.5 mph - N/A   Clear
10:38 PM 73.4 °F - 66.2 °F 78% 30.10 in 4.0 mi Calm Calm - N/A   Haze
10:48 PM 69.8 °F - 66.2 °F 88% 30.10 in 6.0 mi Calm Calm - N/A   Haze
10:58 PM 70.0 °F - 65.5 °F 86% 30.10 in 8.0 mi North - - N/A   Clear
11:08 PM 69.8 °F - 66.2 °F 88% 30.10 in 10.0 mi North - - N/A   Clear
11:28 PM 68.0 °F - 66.2 °F 94% 30.10 in 6.0 mi Calm Calm - N/A   Clear
11:48 PM 69.8 °F - 64.4 °F 83% 30.10 in 10.0 mi NNE 1.2 mph - N/A   Clear
11:58 PM 68.7 °F - 65.1 °F 88% 30.10 in 8.0 mi NNE 2.3 mph - N/A   Clear